Starlink 33760

operational
NORAD ID: 63764 Int'l Des: 2025-089 Owner: SPXS Country: US Constellation: starlink
LEOCIRCULAR

关于 Starlink 33760

正在加载描述...

实时位置

正在加载3D地球...

即将过境

高度历史

Altitude vs Time

uPlot chart will show altitude changes over time

两行轨道根数

1 63764U 25089P 25259.61448052 .00021381 00000-0 78359-3 0 9993
2 63764 43.0009 308.4385 0001305 269.2873 90.7829 15.27606944 22330
Epoch: Sep 16, 2025 • Age: 37 hours

当前状态

高度 486.8 km
速度 7.62 km/s
星下点 -19.55°S, 88.4°E
发射日期 Apr 29, 2025
运行时间 0.3 years
类型 internet

技术详情

分类 Payload
质量 575.00 kg
干质量 530.00 kg
总质量 575.00 kg
长度 0.30 m
直径 4.10 m
跨度 29.00 m
形状 Box + pan
制造商 SPXS
平台类型 Starlink V2MO
阶段状态 In Orbit
所有者/国家 SPXS/US

大型星座

Loading constellations...